User: anonymous   Login
Location: Fairmont
(43.6520°N, 94.4610°W)
Time: 22:09:51
(UTC-05:00)
Language:

Cosmos-2242 - Orbit

View from above orbital plane
View from above orbital plane
View from above satellite
View from above satellite

Ground track
Ground track

The orbit data is extracted from the following two-line orbital elements,

1 22626U 93024A   16241.80409297  .00000246  00000-0  24352-4 0  9991
2 22626  82.5238 317.4251 0019403  16.1242 344.0589 14.87506728262689
Epoch (UTC): 28 August 2016 19:17:53
Eccentricity: 0.0019403
inclination: 82.5238°
perigee height: 592 km
apogee height: 619 km
right ascension of ascending node: 317.4251°
argument of perigee: 16.1242°
revolutions per day: 14.87506728
mean anomaly at epoch: 344.0589°
orbit number at epoch: 26268

The dashed part of the orbit path shows where the satellite is in the earth's shadow,  

DLR